Location: Unspecified
(0.0000°N, 0.0000°E)
Time: 09:54:09
(UTC+00:00)

FAST 1 (USA 222) - Pass Details

Date: 06 June 2024
Orbit: 613 x 632 km, 72.0° (Epoch: 13 June)

Event Time Altitude Azimuth Distance (km) Brightness Sun altitude
Rises 18:44:30 0° 323° (NW) 2,887 ? -10.5°
Reaches altitude 10° 18:47:06 10° 309° (NW) 1,988 ? -11.1°
Maximum altitude 18:50:40 24° 255° (WSW) 1,313 ? -11.9°
Drops below altitude 10° 18:54:16 10° 202° (SSW) 2,004 ? -12.8°
Sets 18:56:54 0° 188° (S) 2,916 ? -13.4°
